Hourly Data Report for February 10, 2018

MIRAMICHI RCS
NEW BRUNSWICK

47°00'34.000" N
65°27'54.000" W
33.00 m
8100989
71744
ACQ

Download Data

Hourly Data (February 2018)
Hourly Data Report for February 10, 2018
TIME
LST
Temp Definition
°C
Dew Point Definition
°C
Rel Hum Definition
%
Precip. Amount Definition
mm

Wind Dir Definition
10's deg

Wind Spd Definition
km/h
Visibility Definition
km
Stn Press Definition
kPa
Hmdx Definition


Wind Chill Definition


Weather Definition


00:00 -17.2 -19.2 84 0.0 16 2   102.61   -19 LegendNANA
01:00 -17.5 -19.4 85 0.0   0   102.64     LegendNANA
02:00 -18.6 -20.5 85 0.0 0 1   102.65   -19 LegendNANA
03:00 -18.4 -20.6 83 0.0   0   102.67     LegendNANA
04:00 -17.0 -19.0 84 0.0 0 1   102.64   -18 LegendNANA
05:00 -16.3 -18.5 83 0.0   0   102.61     LegendNANA
06:00 -15.4 -17.7 83 0.0 25 2   102.56   -17 LegendNANA
07:00 -14.3 -16.4 84 0.0   0   102.51     LegendNANA
08:00 -13.5 -15.4 86 0.0   0   102.50     LegendNANA
09:00 -11.9 -13.9 86 0.2 1 1   102.45   -13 LegendNANA
10:00 -10.3 -12.6 83 0.0   0   102.36     LegendNANA
11:00 -7.5 -10.0 83 0.2   0   102.25     LegendNANA
12:00 -6.2 -8.3 85 0.0 1 3   102.09   -8 LegendNANA
13:00 -4.4 -7.3 80 0.2   0   101.96     LegendNANA
14:00 -4.5 -7.0 83 0.0 2 2   101.88   -5 LegendNANA
15:00 -3.9 -6.1 85 0.0 32 1   101.82   -4 LegendNANA
16:00 -3.8 -5.8 86 0.2   0   101.73     LegendNANA
17:00 -4.4 -5.6 91 0.5 32 1   101.70   -5 LegendNANA
18:00 -4.3 -5.5 92 0.5 24 3   101.70   -6 LegendNANA
19:00 -4.4 -5.5 92 0.2 24 2   101.68   -5 LegendNANA
20:00 -4.4 -5.4 93 0.7 24 5   101.72   -7 LegendNANA
21:00 -4.4 -5.4 93 0.9 28 3   101.66   -6 LegendNANA
22:00 -4.2 -5.1 93 0.3   0   101.61     LegendNANA
23:00 -4.1 -4.9 94 1.0 18 3   101.61   -5 LegendNANA

Notes on Data Quality.

Legend

  • E = Estimated
  • M = Missing
  • NA = Not Available*
  • [empty] = Indicates an unobserved value
Date modified: